Retour au catalogue

STARLINK-35974

ActifCommunicationsVLEO
NORAD 66862·PAYLOAD·🇺🇸 United States

Lancé Dec 2, 2025 depuis Cape Canaveral Space Force Station

Loading…

Prochains Passages (prochaines 24 heures)

TLE

FraisSource: CelesTrak SupGP

Époque: Sep 15, 2026, 03:06 UTC

1 66862C 25281Q   26258.12965278  .00038104  00000+0  13799-2 0  2583
2 66862  43.0027 353.6140 0001500 263.1498 251.5766 15.27564767    10

Suivez STARLINK-35974 en temps réel avec AllMySat

Download on the App Store